| time (UTC) | temp F | wind direction | speed MPH | gust MPH | rain 1hr in | rain 24hr in | rain mn in | humidity % | barometer mb |
| 20260901070038 | 75 | 101 | 0.0 | 0.0 | 0.00 | 0.00 | 0.00 | 96 | 1017.0 |
| 20260901064538 | 75 | 101 | 0.0 | 0.0 | 0.00 | 0.00 | 0.00 | 96 | 1017.0 |
| 20260901063036 | 75 | 101 | 0.0 | 0.0 | 0.00 | 0.00 | 0.00 | 95 | 1017.2 |
| 20260901061531 | 75 | 101 | 0.0 | 0.0 | 0.00 | 0.00 | 0.00 | 95 | 1017.3 |
| 20260901060030 | 76 | 101 | 0.0 | 0.0 | 0.00 | 0.00 | 0.00 | 95 | 1017.3 |
| 20260901054529 | 76 | 101 | 0.0 | 0.0 | 0.00 | 0.00 | 0.00 | 95 | 1017.2 |
| 20260901053028 | 76 | 101 | 0.0 | 0.0 | 0.00 | 0.00 | 0.00 | 94 | 1017.4 |
| 20260901051526 | 76 | 101 | 0.0 | 0.0 | 0.00 | 0.00 | 0.00 | 93 | 1017.4 |
| 20260901050025 | 77 | 101 | 0.0 | 0.0 | 0.00 | 0.00 | 0.00 | 93 | 1017.3 |
| 20260901044521 | 77 | 101 | 0.0 | 0.0 | 0.00 | 0.00 | 0.00 | 93 | 1017.3 |
| 20260901043021 | 77 | 101 | 0.0 | 0.0 | 0.00 | 0.00 | 0.00 | 92 | 1017.3 |
| 20260901041520 | 77 | 101 | 0.0 | 0.0 | 0.00 | 0.00 | 0.00 | 91 | 1017.4 |
| 20260901040021 | 78 | 101 | 0.0 | 0.0 | 0.00 | 0.00 | 0.00 | 90 | 1017.3 |
| 20260901034519 | 78 | 101 | 0.0 | 0.0 | 0.00 | 0.00 | 0.00 | 89 | 1017.4 |
| 20260901033035 | 78 | 101 | 0.0 | 0.0 | 0.00 | 0.00 | 0.00 | 89 | 1017.4 |
| 20260901031518 | 78 | 101 | 0.0 | 0.0 | 0.00 | 0.00 | 0.00 | 88 | 1017.5 |
| 20260901030019 | 79 | 101 | 0.0 | 0.0 | 0.00 | 0.00 | 0.00 | 87 | 1017.4 |
| 20260901024520 | 79 | 101 | 0.0 | 0.0 | 0.00 | 0.00 | 0.00 | 86 | 1017.5 |
| 20260901023017 | 80 | 101 | 0.0 | 0.0 | 0.00 | 0.00 | 0.00 | 85 | 1017.5 |
| 20260901021520 | 81 | 101 | 0.0 | 0.0 | 0.00 | 0.00 | 0.00 | 83 | 1017.3 |
| 20260901020016 | 81 | 101 | 0.0 | 0.0 | 0.00 | 0.00 | 0.00 | 82 | 1017.2 |
| 20260901014515 | 82 | 101 | 0.0 | 0.0 | 0.00 | 0.00 | 0.00 | 80 | 1017.0 |
| 20260901013015 | 82 | 101 | 0.0 | 1.0 | 0.00 | 0.00 | 0.00 | 79 | 1016.8 |
| 20260901011514 | 83 | 101 | 0.0 | 0.0 | 0.00 | 0.00 | 0.00 | 78 | 1016.6 |
| 20260901010015 | 84 | 101 | 0.0 | 1.0 | 0.00 | 0.00 | 0.00 | 75 | 1016.5 |
| 20260901004513 | 84 | 101 | 0.0 | 0.0 | 0.00 | 0.00 | 0.00 | 74 | 1016.3 |
| 20260901003014 | 85 | 101 | 0.0 | 0.0 | 0.00 | 0.00 | 0.00 | 72 | 1016.2 |
| 20260901001517 | 86 | 101 | 0.0 | 1.0 | 0.00 | 0.00 | 0.00 | 71 | 1016.1 |
| 20260901000012 | 87 | 101 | 0.0 | 1.0 | 0.00 | 0.00 | 0.00 | 69 | 1016.3 |
| 20260831234525 | 88 | 101 | 0.0 | 1.0 | 0.00 | 0.00 | 0.00 | 67 | 1016.3 |
| 20260831233011 | 89 | 101 | 0.0 | 2.0 | 0.00 | 0.00 | 0.00 | 66 | 1016.3 |
| 20260831231511 | 90 | 69 | 0.0 | 4.0 | 0.00 | 0.00 | 0.00 | 64 | 1016.3 |
| 20260831230010 | 90 | 98 | 0.0 | 3.0 | 0.00 | 0.00 | 0.00 | 64 | 1016.4 |
| 20260831224508 | 90 | 94 | 1.0 | 4.0 | 0.00 | 0.00 | 0.00 | 62 | 1016.3 |
| 20260831223008 | 91 | 97 | 1.0 | 4.0 | 0.00 | 0.00 | 0.00 | 61 | 1016.3 |
| 20260831221517 | 91 | 110 | 1.0 | 7.0 | 0.00 | 0.00 | 0.00 | 60 | 1016.3 |
| 20260831220018 | 91 | 93 | 1.0 | 4.0 | 0.00 | 0.00 | 0.00 | 60 | 1016.4 |
| 20260831214507 | 92 | 94 | 1.0 | 5.0 | 0.00 | 0.00 | 0.00 | 61 | 1016.5 |
| 20260831213011 | 92 | 119 | 1.0 | 6.0 | 0.00 | 0.00 | 0.00 | 60 | 1016.6 |
| 20260831211504 | 93 | 338 | 1.0 | 6.0 | 0.00 | 0.00 | 0.00 | 59 | 1016.7 |
| 20260831210001 | 94 | 82 | 0.0 | 4.0 | 0.00 | 0.00 | 0.00 | 58 | 1016.8 |
| 20260831204602 | 94 | 91 | 0.0 | 6.0 | 0.00 | 0.00 | 0.00 | 59 | 1016.9 |
| 20260831203127 | 94 | 87 | 1.0 | 8.0 | 0.00 | 0.00 | 0.00 | 56 | 1016.9 |
| 20260831201555 | 94 | 87 | 1.0 | 6.0 | 0.00 | 0.00 | 0.00 | 56 | 1017.1 |
| 20260831200055 | 94 | 124 | 1.0 | 4.0 | 0.00 | 0.00 | 0.00 | 57 | 1017.2 |
| 20260831194551 | 93 | 75 | 0.0 | 8.0 | 0.00 | 0.00 | 0.00 | 59 | 1017.4 |
| 20260831193053 | 93 | 86 | 1.0 | 6.0 | 0.00 | 0.00 | 0.00 | 59 | 1017.5 |
| 20260831191550 | 94 | 96 | 2.0 | 7.0 | 0.00 | 0.00 | 0.00 | 56 | 1017.7 |
| 20260831190104 | 93 | 105 | 0.0 | 4.0 | 0.00 | 0.00 | 0.00 | 58 | 1017.8 |
| 20260831184545 | 93 | 71 | 1.0 | 5.0 | 0.00 | 0.00 | 0.00 | 62 | 1018.0 |
| 20260831183044 | 92 | 82 | 0.0 | 3.0 | 0.00 | 0.00 | 0.00 | 63 | 1018.3 |
| 20260831181552 | 92 | 294 | 1.0 | 4.0 | 0.00 | 0.00 | 0.00 | 64 | 1018.5 |
| 20260831180037 | 91 | 165 | 0.0 | 6.0 | 0.00 | 0.00 | 0.00 | 64 | 1018.7 |
| 20260831174543 | 90 | 76 | 1.0 | 6.0 | 0.00 | 0.00 | 0.00 | 67 | 1018.9 |
| 20260831173032 | 91 | 83 | 2.0 | 7.0 | 0.00 | 0.00 | 0.00 | 65 | 1019.0 |
| 20260831171533 | 89 | 109 | 1.0 | 6.0 | 0.00 | 0.00 | 0.00 | 67 | 1019.1 |
| 20260831170036 | 89 | 86 | 1.0 | 4.0 | 0.00 | 0.00 | 0.00 | 70 | 1019.2 |
| 20260831164528 | 89 | 136 | 1.0 | 4.0 | 0.00 | 0.00 | 0.00 | 66 | 1019.4 |
| 20260831163027 | 89 | 86 | 1.0 | 3.0 | 0.00 | 0.00 | 0.00 | 68 | 1019.6 |
| 20260831161529 | 90 | 73 | 1.0 | 7.0 | 0.00 | 0.00 | 0.00 | 68 | 1019.7 |
| 20260831160038 | 89 | 140 | 0.0 | 4.0 | 0.00 | 0.00 | 0.00 | 70 | 1019.8 |
| 20260831154521 | 89 | 99 | 1.0 | 3.0 | 0.00 | 0.00 | 0.00 | 71 | 1019.9 |
| 20260831153038 | 88 | 86 | 0.0 | 4.0 | 0.00 | 0.00 | 0.00 | 73 | 1019.8 |
| 20260831151515 | 88 | 107 | 0.0 | 3.0 | 0.00 | 0.00 | 0.00 | 74 | 1019.8 |
| 20260831150011 | 87 | 112 | 1.0 | 2.0 | 0.00 | 0.00 | 0.00 | 76 | 1019.8 |
| 20260831144507 | 86 | 112 | 1.0 | 3.0 | 0.00 | 0.00 | 0.00 | 77 | 1019.8 |
| 20260831143002 | 85 | 148 | 0.0 | 3.0 | 0.00 | 0.00 | 0.00 | 79 | 1019.8 |
| 20260831141558 | 84 | 83 | 0.0 | 3.0 | 0.00 | 0.00 | 0.00 | 81 | 1019.8 |
| 20260831140054 | 83 | 86 | 0.0 | 2.0 | 0.00 | 0.00 | 0.00 | 83 | 1019.9 |
| 20260831134551 | 81 | 88 | 1.0 | 4.0 | 0.00 | 0.00 | 0.00 | 84 | 1020.0 |
| 20260831133047 | 80 | 88 | 0.0 | 1.0 | 0.00 | 0.00 | 0.00 | 87 | 1020.0 |
| 20260831131540 | 78 | 90 | 0.0 | 2.0 | 0.00 | 0.00 | 0.00 | 90 | 1020.0 |
| 20260831130042 | 76 | 90 | 0.0 | 2.0 | 0.00 | 0.00 | 0.00 | 94 | 1019.9 |
| 20260831124532 | 75 | 90 | 0.0 | 2.0 | 0.00 | 0.00 | 0.00 | 96 | 1019.6 |
| 20260831123042 | 74 | 90 | 0.0 | 1.0 | 0.00 | 0.00 | 0.00 | 98 | 1019.5 |
| 20260831121530 | 73 | 90 | 0.0 | 0.0 | 0.00 | 0.00 | 0.00 | 99 | 1019.3 |
| 20260831120036 | 72 | 90 | 0.0 | 1.0 | 0.00 | 0.00 | 0.00 | 99 | 1018.9 |
| 20260831114521 | 72 | 90 | 0.0 | 0.0 | 0.00 | 0.00 | 0.00 | 98 | 1018.9 |
| 20260831113023 | 72 | 90 | 0.0 | 1.0 | 0.00 | 0.00 | 0.00 | 98 | 1018.7 |
| 20260831111517 | 72 | 90 | 0.0 | 0.0 | 0.00 | 0.00 | 0.00 | 98 | 1018.5 |
| 20260831110014 | 72 | 90 | 0.0 | 0.0 | 0.00 | 0.00 | 0.00 | 97 | 1018.4 |
| 20260831104527 | 72 | 90 | 0.0 | 0.0 | 0.00 | 0.00 | 0.00 | 97 | 1018.3 |
| 20260831103010 | 72 | 90 | 0.0 | 0.0 | 0.00 | 0.00 | 0.00 | 97 | 1018.2 |
| 20260831101518 | 73 | 90 | 0.0 | 0.0 | 0.00 | 0.00 | 0.00 | 97 | 1018.2 |
| 20260831100020 | 73 | 90 | 0.0 | 1.0 | 0.00 | 0.00 | 0.00 | 97 | 1018.1 |
| 20260831094506 | 73 | 90 | 0.0 | 1.0 | 0.00 | 0.00 | 0.00 | 96 | 1018.0 |
| 20260831093005 | 73 | 90 | 0.0 | 1.0 | 0.00 | 0.00 | 0.00 | 96 | 1017.9 |
| 20260831091502 | 73 | 90 | 0.0 | 0.0 | 0.00 | 0.00 | 0.00 | 96 | 1017.9 |
| 20260831090002 | 73 | 90 | 0.0 | 0.0 | 0.00 | 0.00 | 0.00 | 95 | 1017.8 |
| 20260831084601 | 74 | 90 | 0.0 | 1.0 | 0.00 | 0.00 | 0.00 | 95 | 1017.7 |
| 20260831083059 | 74 | 90 | 0.0 | 1.0 | 0.00 | 0.00 | 0.00 | 94 | 1017.6 |
| 20260831081600 | 74 | 90 | 0.0 | 1.0 | 0.00 | 0.00 | 0.00 | 94 | 1017.4 |
| 20260831080055 | 75 | 90 | 0.0 | 1.0 | 0.00 | 0.00 | 0.00 | 93 | 1017.4 |
| 20260831074554 | 75 | 90 | 0.0 | 0.0 | 0.00 | 0.00 | 0.00 | 92 | 1017.3 |
| 20260831073051 | 76 | 90 | 0.0 | 0.0 | 0.00 | 0.00 | 0.00 | 91 | 1017.3 |
| 20260831071551 | 76 | 90 | 0.0 | 1.0 | 0.00 | 0.00 | 0.00 | 90 | 1017.4 |